Flag for Russia Weather past 2 weeks in Sochi, Russia

Now
75 °F

Scattered clouds.


Feels Like: 78 °F
Forecast: 64 / 80 °F
Wind: 3 mph from West

Location: Adler

Current Time: May 24, 2015 at 4:52:37 PM

Latest Report: May 24, 2015 at 4:30 PM


Visibility: N/A

Pressure: 29.83 "Hg

Humidity: 54%

Dew point: 57 °F

Location of SochiLocation

Historic Weather in Sochi — Graph

°F

Sochi temperature yesterday

Maximum temperature yesterday: 77 °F (at 3:00 PM)
Minimum temperature yesterday: 64 °F (at 3:30 AM)
Average temperature yesterday: 68 °F

Past Weeks' High & Low Weather Summary

 TemperatureHumidityPressure
High84 °F (May 21, 10:30 AM)94% (May 10, 5:30 AM)30.15 "Hg (May 10, 5:30 AM)
Low50 °F (May 11, 2:00 AM)26% (May 20, 4:30 PM)29.74 "Hg (May 21, 4:00 PM)
Average63 °F70%29.98 "Hg
* Reported May 9 3:00 PM — May 24 3:30 PM, Sochi, Weather by CustomWeather, © 2015

Note: Actual official high and low records may vary slightly from our data, if they occured in-between our weather recording intervals... More about our weather records

Advertising

Sochi weather history for previous 24 hours

 ConditionsComfort  
Time TempWeatherWind HumidityBarometerVisibility
3:30 PM
Sun, May 24
79 °FPassing clouds.8 mph45%29.83 "HgN/A
3:00 PM79 °FPassing clouds.8 mph45%29.83 "HgN/A
2:30 PM79 °FPartly sunny.1 mph48%29.86 "HgN/A
2:00 PM77 °FPartly sunny.6 mph51%29.86 "HgN/A
1:30 PM77 °FPartly sunny.6 mph51%29.86 "HgN/A
1:00 PM77 °FPartly sunny.8 mph51%29.86 "HgN/A
12:30 PM75 °FPartly sunny.8 mph54%29.86 "HgN/A
12:00 PM75 °FPassing clouds.8 mph50%29.86 "HgN/A
11:30 AM75 °FPassing clouds.6 mph50%29.86 "HgN/A
11:00 AM75 °FScattered clouds.6 mph50%29.89 "HgN/A
10:30 AM75 °FScattered clouds.8 mph50%29.89 "HgN/A
10:00 AM75 °FScattered clouds.8 mph47%29.89 "HgN/A
9:30 AM75 °FScattered clouds.8 mph50%29.89 "HgN/A
9:00 AM73 °FPassing clouds.6 mph57%29.89 "HgN/A
8:30 AM72 °FClear.1 mph69%29.89 "HgN/A
8:00 AM70 °FClear.3 mph73%29.89 "HgN/A
7:30 AM68 °FClear.1 mph78%29.89 "HgN/A
7:00 AM66 °FClear.3 mph83%29.89 "HgN/A
6:30 AM64 °FClear.1 mph88%29.89 "HgN/A
6:00 AM61 °FClear.1 mph94%29.89 "HgN/A
5:30 AM61 °FClear.1 mph88%29.86 "HgN/A
5:00 AM61 °FClear.No wind94%29.86 "HgN/A
4:30 AM61 °FPassing clouds.No wind88%29.86 "HgN/A
4:00 AM63 °FPassing clouds.No wind88%29.86 "HgN/A
3:30 AM63 °FPassing clouds.3 mph88%29.86 "HgN/A
3:00 AM64 °FPassing clouds.1 mph83%29.89 "HgN/A
2:30 AM66 °FPassing clouds.3 mph83%29.89 "HgN/A
2:00 AM64 °FPassing clouds.3 mph88%29.89 "HgN/A
1:30 AM64 °FPassing clouds.No wind88%29.89 "HgN/A
1:00 AM64 °FPassing clouds.3 mph88%29.89 "HgN/A
12:00 AM66 °FPassing clouds.1 mph83%29.89 "HgN/A
11:30 PM
Sat, May 23
66 °FPassing clouds.3 mph83%29.89 "HgN/A
11:00 PM66 °FOvercast.3 mph83%29.89 "HgN/A
10:30 PM66 °FOvercast.3 mph83%29.89 "HgN/A
10:00 PM66 °FOvercast.1 mph78%29.89 "HgN/A
9:30 PM66 °FOvercast.6 mph83%29.92 "HgN/A
9:00 PM66 °FOvercast.8 mph83%29.92 "HgN/A
8:30 PM66 °FMostly cloudy.6 mph83%29.89 "HgN/A
8:00 PM66 °FMostly cloudy.1 mph83%29.89 "HgN/A
7:30 PM66 °FPartly sunny.6 mph83%29.86 "HgN/A
7:00 PM68 °FPartly sunny.6 mph78%29.86 "HgN/A
6:30 PM68 °FPartly sunny.6 mph83%29.86 "HgN/A
6:00 PM70 °FPartly sunny.3 mph78%29.83 "HgN/A
5:30 PM72 °FPassing clouds.3 mph73%29.83 "HgN/A
5:00 PM73 °FPassing clouds.6 mph69%29.83 "HgN/A
4:30 PM73 °FPassing clouds.8 mph65%29.80 "HgN/A
4:00 PM75 °FPassing clouds.8 mph50%29.80 "HgN/A
Weather by CustomWeather, © 2015

See weather overviewHow to use our weather pages